Location: Brede
(50.9167°N, 0.6000°E)
Time: 17:31:45
(UTC+00:00)

Cosmos 1980 - Pass Details

Date: 08 August 2020
Orbit: 838 x 848 km, 71.0° (Epoch: 23 September)

Event Time Altitude Azimuth Distance (km) Brightness Sun altitude
Rises 00:23:04 0° 331° (NNW) 3,414 7.7 -22.9°
Reaches altitude 10° 00:25:33 10° 334° (NNW) 2,477 6.9 -22.8°
Maximum altitude 00:31:12 64° 56° (ENE) 938 4.0 -22.7°
Enters shadow 00:34:07 29° 129° (SE) 1,515 4.7 -22.7°
